Home   Weather   Uckfield   Past weeks
Flag for United Kingdom

Past Weather in Uckfield, England, United Kingdom — Yesterday and Last 2 Weeks

Now
64 °F

Scattered clouds.


Feels Like: 64 °F
Forecast: 70 / 58 °F
Wind: 5 mph from North

Location: London / Gatwick Airport

Current Time: Jun 25, 2019 at 8:54:04 am

Latest Report: Jun 25, 2019 at 7:50 am


Visibility: 5 mi

Pressure: 30.01 "Hg

Humidity: 94%

Dew Point: 63 °F

Location of UckfieldLocation

Past Weather in Uckfield — Graph

°F

Uckfield Temperature Yesterday

Maximum temperature yesterday: 73 °F (at 3:50 pm)
Minimum temperature yesterday: 61 °F (at 1:50 am)
Average temperature yesterday: 67 °F

High & Low Weather Summary for the Past Weeks

 TemperatureHumidityPressure
High75 °F (Jun 23, 12:50 pm)100% (Jun 10, 2:50 pm)30.18 "Hg (Jun 10, 2:50 pm)
Low46 °F (Jun 22, 2:50 am)41% (Jun 22, 4:50 pm)29.68 "Hg (Jun 13, 4:20 am)
Average59 °F83%29.94 "Hg
* Reported Jun 10 7:20 am — Jun 25 7:20 am, Uckfield. Weather by CustomWeather, © 2019

Note: Actual official high and low records may vary slightly from our data, if they occured in-between our weather recording intervals... More about our weather records

Advertising

Uckfield Weather History for the Previous 24 Hours

Scroll right to see more
 ConditionsComfort  
Time TempWeatherWind HumidityBarometerVisibility
7:20 am
Tue, Jun 25
64 °FPartly sunny.5 mph94%30.01 "Hg4 mi
6:50 am63 °FPartly sunny.6 mph100%30.01 "HgN/A
6:20 am63 °FScattered clouds.5 mph94%30.01 "HgN/A
5:50 am61 °FPassing clouds.12 mph100%29.98 "HgN/A
5:20 am61 °FLight rain. Passing clouds.9 mph94%30.01 "Hg5 mi
4:50 am61 °FRain. Partly sunny.5 mph94%30.04 "Hg3 mi
4:20 am61 °FLight rain. Passing clouds.1 mph94%30.04 "Hg5 mi
3:50 am61 °FLight rain. Clear.5 mph94%30.04 "HgN/A
3:20 am61 °FLight rain. Clear.5 mph94%30.01 "HgN/A
2:50 am61 °FLight rain. Clear.3 mph100%30.04 "Hg4 mi
2:20 am63 °FLight rain. Clear.3 mph94%30.04 "Hg6 mi
1:50 am63 °FLight rain. Clear.3 mph94%30.04 "Hg6 mi
1:20 am63 °FLight rain. Clear.5 mph94%30.04 "Hg4 mi
12:50 am63 °FLight rain. Clear.5 mph94%30.07 "Hg4 mi
12:20 am63 °FLight rain. Clear.5 mph94%30.07 "Hg5 mi
11:50 pm
Mon, Jun 24
63 °FLight rain. Clear.1 mph88%30.07 "HgN/A
11:20 pm63 °FClear.2 mph88%30.07 "Hg10 mi
10:50 pm63 °FClear.3 mph88%30.07 "Hg10 mi
10:20 pm63 °FClear.1 mph88%30.09 "Hg10 mi
9:50 pm63 °FClear.5 mph88%30.09 "HgN/A
9:20 pm63 °FPassing clouds.6 mph88%30.07 "HgN/A
8:50 pm64 °FScattered showers. Clear.6 mph88%30.07 "HgN/A
8:20 pm68 °FScattered showers. Clear.6 mph78%30.07 "HgN/A
7:50 pm70 °FSunny.7 mph73%30.07 "Hg10 mi
7:20 pm70 °FSunny.7 mph78%30.04 "Hg10 mi
6:50 pm72 °FPassing clouds.5 mph65%30.04 "HgN/A
6:20 pm73 °FSunny.5 mph61%30.01 "Hg10 mi
5:50 pm73 °FSunny.3 mph61%30.01 "Hg10 mi
5:20 pm73 °FSunny.6 mph65%30.04 "Hg10 mi
4:50 pm73 °FPassing clouds.6 mph65%30.04 "HgN/A
4:20 pm73 °FSunny.3 mph65%30.01 "Hg10 mi
3:50 pm73 °FPassing clouds.5 mph69%30.01 "HgN/A
3:20 pm72 °FPassing clouds.6 mph73%30.04 "HgN/A
2:50 pm70 °FPassing clouds.7 mph73%30.04 "HgN/A
2:20 pm70 °FSunny.6 mph83%30.04 "Hg10 mi
1:50 pm70 °FPassing clouds.5 mph83%30.04 "HgN/A
1:20 pm70 °FSunny.6 mph83%30.04 "Hg10 mi
12:50 pm70 °FPassing clouds.7 mph83%30.04 "HgN/A
12:20 pm72 °FPassing clouds.6 mph78%30.04 "HgN/A
11:50 am72 °FPassing clouds.7 mph73%30.01 "HgN/A
11:20 am72 °FPassing clouds.6 mph73%30.01 "HgN/A
10:50 am72 °FPassing clouds.5 mph73%29.98 "HgN/A
10:20 am72 °FSunny.3 mph73%29.98 "Hg10 mi
9:50 am72 °FLight rain. Clear.3 mph78%29.98 "HgN/A
9:20 am72 °FPassing clouds.6 mph78%29.98 "HgN/A
8:50 am72 °FSunny.3 mph78%29.95 "Hg10 mi
8:20 am72 °FSunny.7 mph78%29.95 "Hg10 mi
Weather by CustomWeather, © 2019

See weather overview